Location: Recife
(8.0585°S, 34.8848°W)
Time: 10:28:29
(UTC-03:00)

Altair - Pass Details

Date: 14 April 2026
Orbit: 1501 x 1682 km, 47.2° (Epoch: 20 May)

Event Time Altitude Azimuth Distance (km) Brightness Sun altitude
Rises 08:17:38 0° 212° (SSW) 4,860 9.8 41.3°
Reaches altitude 10° 08:20:52 10° 207° (SSW) 3,892 9.4 42.1°
Maximum altitude 08:30:36 54° 132° (SE) 1,967 9.0 44.3°
Drops below altitude 10° 08:40:25 10° 57° (ENE) 3,935 10.6 46.6°
Sets 08:43:40 0° 52° (NE) 4,917 10.8 47.3°
